Content
SEND FEEDBACK

Daily
Averages
Monthly
Summary
Egypt

AL QAHIRAH, EGYPT


Home > Middle East > Egypt
Elevation: 108 feet     Latitude: 30 01N     Longitude: 031 18E

WEATHER
 
SELECT A DAY
Number of Records: 289,516;   Date Range: 7/1/96 - 9/15/14
 
SHARE

PRINT THIS DATA

[ ← Previous Day ]
WEATHER ALMANAC - JANUARY 31, 2013
[ Next Day → ]
[ °C ]   °F
Weather ElementAverageHighLow
Temperature55.2 °F61 °F (2:00 pm)51 °F (8:00 am)
Dewpoint44.3 °F50 °F (11:00 am)41 °F (6:00 pm)
Humidity67 %88 % (10:00 am)45 % (8:00 pm)
Barometer29.89 in29.98 in (8:30 pm)29.83 in (3:30 am)
Wind Speed15.3 mph24.2 mph (2:30 pm)
Weather ElementAverage
Visibility5.2 mi
Wind DirectionWSW (234 °)

Weather ElementTotal
Precipitation---
Heating Degree Days9 (Base 65)
Growing Degree Days6 (Base 50)
Averaged from 52 records on January 31, 2013
WEATHER CONDITIONS BREAKOUT
WIND DIRECTION BREAKOUT
WEATHER BY HOUR - JANUARY 31, 2013
[ °C ]   °F
Local TimeTemperatureDewpointHumidityBarometerVisibilityWind DirectionWind SpeedGust SpeedPrecipitationEventsConditions
12:30 AM53.6 °F44.6 °F72 %29.89 inNorthClear
1:00 AM53.6 °F44.6 °F72 %29.89 inNorthClear
1:30 AM53.6 °F42.8 °F67 %29.89 inNorthClear
2:00 AM54.0 °F43.0 °F56 %29.89 in6.0 miWest (260°)16.1 mphPartly Cloudy
2:00 AM53.6 °F42.8 °F67 %29.86 in6.2 miWest (260°)16.1 mphMostly Cloudy
2:30 AM51.8 °F44.6 °F76 %29.86 in3.7 miWSW (240°)20.7 mphRainLight Rain
3:00 AM51.8 °F44.6 °F76 %29.86 in3.7 miWSW (240°)11.5 mphMostly Cloudy
3:30 AM51.8 °F46.4 °F82 %29.83 in3.7 miSW (220°)16.1 mphMostly Cloudy
4:00 AM51.8 °F44.6 °F76 %29.83 in3.7 miSSW (210°)15.0 mphMostly Cloudy
4:30 AM51.8 °F44.6 °F76 %29.83 in3.7 miSW (220°)15.0 mphMostly Cloudy
5:00 AM51.8 °F44.6 °F76 %29.83 in3.7 miSW (230°)16.1 mphMostly Cloudy
5:30 AM51.8 °F44.6 °F76 %29.83 in3.7 miSW (230°)16.1 mphMostly Cloudy
6:00 AM51.8 °F44.6 °F76 %29.83 in3.7 miSW (220°)15.0 mphMostly Cloudy
6:30 AM51.8 °F44.6 °F76 %29.83 in3.7 miSW (220°)17.3 mphMostly Cloudy
7:00 AM51.8 °F42.8 °F71 %29.83 in3.7 miWSW (250°)17.3 mphMostly Cloudy
7:30 AM51.8 °F44.6 °F76 %29.83 in3.7 miWSW (250°)18.4 mphMostly Cloudy
8:00 AM51.0 °F46.0 °F77 %29.87 in4.0 miWSW (240°)17.3 mphMist
8:00 AM51.8 °F46.4 °F82 %29.86 in3.7 miWSW (240°)17.3 mphMostly Cloudy
8:30 AM51.8 °F46.4 °F82 %29.86 in3.7 miWSW (250°)20.7 mphMostly Cloudy
9:00 AM53.6 °F48.2 °F82 %29.86 in3.7 miWSW (250°)17.3 mphMostly Cloudy
9:30 AM51.8 °F46.4 °F82 %29.89 in3.7 miWest (260°)19.6 mphRainRain
10:00 AM51.8 °F48.2 °F88 %29.89 in6.2 miWSW (240°)19.6 mphMostly Cloudy
10:30 AM55.4 °F48.2 °F77 %29.89 in6.2 miWSW (240°)19.6 mphMostly Cloudy
11:00 AM55.4 °F50.0 °F82 %29.89 in6.2 miWSW (250°)17.3 mphMostly Cloudy
11:30 AM55.4 °F46.4 °F72 %29.89 in5.0 miWest (260°)17.3 mphRainLight Rain
11:37 AM55.4 °F46.4 °F72 %29.89 in5.0 miWest (260°)17.3 mphRainLight Rain
12:00 PM57.2 °F48.2 °F72 %29.89 in6.2 miWSW (240°)15.0 mphMostly Cloudy
12:30 PM57.2 °F46.4 °F67 %29.86 in6.2 miWest (260°)17.3 mphMostly Cloudy
1:00 PM59.0 °F42.8 °F55 %29.86 in6.2 miWest (280°)19.6 mphMostly Cloudy
1:30 PM59.0 °F44.6 °F59 %29.86 in6.2 miWSW (240°)18.4 mphMostly Cloudy
2:00 PM61.0 °F46.0 °F46 %29.87 in6.0 miWest (280°)19.6 mphPartly Cloudy
2:00 PM60.8 °F46.4 °F59 %29.86 in6.2 miWest (280°)19.6 mphMostly Cloudy
2:30 PM60.8 °F42.8 °F52 %29.86 in6.2 miWest (280°)24.2 mphMostly Cloudy
3:00 PM60.8 °F42.8 °F52 %29.86 in6.2 miWest (260°)20.7 mphMostly Cloudy
3:30 PM59.0 °F42.8 °F55 %29.89 in6.2 miWest (270°)19.6 mphMostly Cloudy
4:00 PM59.0 °F42.8 °F55 %29.89 in6.2 miWSW (250°)17.3 mphMostly Cloudy
4:30 PM59.0 °F42.8 °F55 %29.89 in6.2 miWest (260°)15.0 mphMostly Cloudy
5:00 PM59.0 °F42.8 °F55 %29.92 in6.2 miWest (280°)12.7 mphMostly Cloudy
5:30 PM59.0 °F42.8 °F55 %29.92 in6.2 miWest (280°)12.7 mphMostly Cloudy
6:00 PM59.0 °F41.0 °F51 %29.92 in6.2 miWest (270°)11.5 mphScattered Clouds
6:30 PM59.0 °F41.0 °F51 %29.92 in6.2 miWest (270°)11.5 mphScattered Clouds
7:00 PM57.2 °F41.0 °F55 %29.95 in6.2 miWest (270°)12.7 mphScattered Clouds
7:30 PM57.2 °F41.0 °F55 %29.95 in6.2 miWest (270°)12.7 mphScattered Clouds
8:00 PM57.0 °F41.0 °F45 %29.97 in6.0 miWSW (250°)8.1 mph
8:00 PM57.2 °F41.0 °F55 %29.95 inWSW (250°)8.1 mphClear
8:30 PM55.4 °F42.8 °F63 %29.98 inWSW (250°)8.1 mphClear
9:00 PM55.4 °F42.8 °F63 %29.98 inSW (230°)9.2 mphClear
9:30 PM55.4 °F42.8 °F63 %29.98 inSW (230°)9.2 mphClear
10:00 PM53.6 °F42.8 °F67 %29.98 inSW (220°)6.9 mphClear
10:30 PM53.6 °F42.8 °F67 %29.98 inSW (220°)6.9 mphClear
11:00 PM53.6 °F44.6 °F72 %29.98 inSW (220°)9.2 mphClear
11:30 PM53.6 °F44.6 °F72 %29.98 inSW (220°)9.2 mphClear
Hourly data recorded from HECA, located miles away from Al Qahirah, Egypt







STORIES FROM OUR PARTNERS